When you browse on this site, cookies collect data to enhance your experience and personalize the content and advertising you see.
Visit our Privacy Policy to learn more. By continuing to use the site, you agree to this use of cookies and data.
  • In Romania
  • List of Countries
  • For 7 days
  • Water Temperature
  • Weather Map
  • Weather Widgets
  • user-avatar
    Login

    Hourly Weather Barcelona

    Today, 20 November, Wednesday

    Time Temperature Precipitation Wind Pressure Humidity
    00:00 +8°C° 0 mm 2 mps 758 mmHg 56%
    01:00 +8°C° 0 mm 2 mps 757 mmHg 54%
    02:00 +7°C° 0 mm 2 mps 757 mmHg 53%
    03:00 +7°C° 0 mm 2 mps 756 mmHg 51%
    04:00 +7°C° 0 mm 2 mps 756 mmHg 52%
    05:00 +7°C° 0 mm 2 mps 756 mmHg 52%
    06:00 +7°C° 0 mm 2 mps 756 mmHg 53%
    07:00 +8°C° 0 mm 2 mps 756 mmHg 52%
    08:00 +9°C° 0 mm 2 mps 756 mmHg 50%
    09:00 +10°C° 0 mm 1 mps 756 mmHg 49%
    10:00 +11°C° 0 mm 1 mps 756 mmHg 49%
    11:00 +13°C° 0 mm 1 mps 755 mmHg 49%
    12:00 +14°C° 0 mm 1 mps 755 mmHg 50%
    13:00 +14°C° 0 mm 2 mps 754 mmHg 52%
    14:00 +14°C° 0 mm 2 mps 754 mmHg 53%
    15:00 +14°C° 0 mm 2 mps 753 mmHg 55%
    16:00 +13°C° 0 mm 2 mps 753 mmHg 58%
    17:00 +13°C° 0 mm 2 mps 753 mmHg 61%
    18:00 +12°C° 0 mm 2 mps 753 mmHg 65%
    19:00 +12°C° 0.1 mm 2 mps 753 mmHg 66%
    20:00 +12°C° 0.1 mm 2 mps 753 mmHg 67%
    21:00 +11°C° 0.1 mm 3 mps 753 mmHg 69%
    22:00 +10°C° 0 mm 3 mps 753 mmHg 70%
    23:00 +10°C° 0 mm 3 mps 753 mmHg 71%

    Tomorrow, 21 November, Thursday

    Time Temperature Precipitation Wind Pressure Humidity
    00:00 +10°C° 0 mm 3 mps 753 mmHg 73%
    01:00 +10°C° 0 mm 3 mps 752 mmHg 73%
    02:00 +10°C° 0 mm 2 mps 752 mmHg 73%
    03:00 +9°C° 0 mm 2 mps 752 mmHg 73%
    04:00 +9°C° 0.1 mm 2 mps 752 mmHg 73%
    05:00 +9°C° 0.1 mm 2 mps 752 mmHg 73%
    06:00 +9°C° 0.1 mm 2 mps 752 mmHg 73%
    07:00 +10°C° 0 mm 3 mps 752 mmHg 71%
    08:00 +10°C° 0 mm 3 mps 752 mmHg 69%
    09:00 +11°C° 0 mm 4 mps 752 mmHg 66%
    10:00 +12°C° 0 mm 4 mps 752 mmHg 62%
    11:00 +13°C° 0 mm 5 mps 752 mmHg 57%
    12:00 +14°C° 0 mm 5 mps 751 mmHg 52%
    13:00 +14°C° 0 mm 6 mps 751 mmHg 52%
    14:00 +14°C° 0 mm 6 mps 751 mmHg 51%
    15:00 +14°C° 0 mm 6 mps 751 mmHg 50%
    16:00 +14°C° 0 mm 6 mps 752 mmHg 55%
    17:00 +13°C° 0 mm 5 mps 752 mmHg 59%
    18:00 +12°C° 0 mm 4 mps 752 mmHg 64%
    19:00 +11°C° 0 mm 4 mps 752 mmHg 65%
    20:00 +11°C° 0 mm 3 mps 753 mmHg 66%
    21:00 +11°C° 0 mm 3 mps 753 mmHg 66%
    22:00 +12°C° 0 mm 2 mps 753 mmHg 67%
    23:00 +10°C° 0 mm 2 mps 752 mmHg 67%

    Day after tomorrow, 22 November, Friday

    Time Temperature Precipitation Wind Pressure Humidity
    00:00 +10°C° 0 mm 2 mps 752 mmHg 67%
    01:00 +10°C° 0 mm 2 mps 752 mmHg 67%
    02:00 +10°C° 0 mm 2 mps 752 mmHg 68%
    03:00 +9°C° 0 mm 2 mps 751 mmHg 68%
    04:00 +9°C° 0 mm 2 mps 751 mmHg 67%
    05:00 +9°C° 0 mm 2 mps 751 mmHg 66%
    06:00 +9°C° 0 mm 2 mps 751 mmHg 66%
    07:00 +10°C° 0 mm 2 mps 750 mmHg 62%
    08:00 +12°C° 0 mm 2 mps 750 mmHg 59%
    09:00 +12°C° 0 mm 2 mps 750 mmHg 56%
    10:00 +13°C° 0 mm 2 mps 749 mmHg 59%
    11:00 +13°C° 0 mm 3 mps 749 mmHg 61%
    12:00 +14°C° 0 mm 3 mps 748 mmHg 64%
    13:00 +14°C° 0.1 mm 3 mps 747 mmHg 69%
    14:00 +14°C° 0.1 mm 4 mps 746 mmHg 74%
    15:00 +14°C° 0.1 mm 4 mps 746 mmHg 79%
    16:00 +14°C° 1.1 mm 5 mps 745 mmHg 82%
    17:00 +13°C° 1.1 mm 6 mps 744 mmHg 86%
    18:00 +12°C° 1.1 mm 7 mps 744 mmHg 90%
    19:00 +13°C° 3.9 mm 8 mps 743 mmHg 92%
    20:00 +13°C° 3.9 mm 9 mps 742 mmHg 93%
    21:00 +13°C° 3.9 mm 10 mps 741 mmHg 95%
    22:00 +13°C° 1 mm 9 mps 741 mmHg 92%
    23:00 +13°C° 1 mm 8 mps 740 mmHg 89%

    23 November, Saturday

    Time Temperature Precipitation Wind Pressure Humidity
    00:00 +14°C° 1 mm 7 mps 739 mmHg 86%
    01:00 +13°C° 0.1 mm 6 mps 739 mmHg 83%
    02:00 +13°C° 0.1 mm 6 mps 739 mmHg 80%
    03:00 +12°C° 0.1 mm 5 mps 738 mmHg 77%
    04:00 +12°C° 0.1 mm 4 mps 739 mmHg 77%
    05:00 +12°C° 0.1 mm 4 mps 739 mmHg 76%
    06:00 +12°C° 0.1 mm 4 mps 739 mmHg 75%
    07:00 +12°C° 0.1 mm 3 mps 740 mmHg 74%
    08:00 +13°C° 0.1 mm 2 mps 740 mmHg 72%
    09:00 +14°C° 0.1 mm 2 mps 741 mmHg 70%
    10:00 +14°C° 0.3 mm 2 mps 741 mmHg 70%
    11:00 +14°C° 0.3 mm 2 mps 741 mmHg 69%
    12:00 +14°C° 0.3 mm 3 mps 741 mmHg 69%
    13:00 +14°C° 0.8 mm 4 mps 742 mmHg 69%
    14:00 +14°C° 0.8 mm 4 mps 742 mmHg 68%
    15:00 +14°C° 0.8 mm 5 mps 742 mmHg 67%
    16:00 +13°C° 0.5 mm 5 mps 743 mmHg 69%
    17:00 +12°C° 0.5 mm 4 mps 744 mmHg 70%
    18:00 +12°C° 0.5 mm 4 mps 744 mmHg 71%
    19:00 +11°C° 0 mm 4 mps 745 mmHg 72%
    20:00 +11°C° 0 mm 4 mps 746 mmHg 72%
    21:00 +11°C° 0 mm 4 mps 746 mmHg 72%
    22:00 +11°C° 0.1 mm 4 mps 747 mmHg 72%
    23:00 +11°C° 0.1 mm 4 mps 748 mmHg 72%

    24 November, Sunday

    Time Temperature Precipitation Wind Pressure Humidity
    00:00 +11°C° 0.1 mm 3 mps 748 mmHg 72%
    01:00 +11°C° 0 mm 3 mps 748 mmHg 73%
    02:00 +11°C° 0 mm 3 mps 749 mmHg 73%
    03:00 +10°C° 0 mm 3 mps 749 mmHg 73%
    04:00 +10°C° 0 mm 3 mps 750 mmHg 73%
    05:00 +10°C° 0 mm 3 mps 750 mmHg 72%
    06:00 +10°C° 0 mm 3 mps 751 mmHg 72%
    07:00 +11°C° 0 mm 3 mps 752 mmHg 70%
    08:00 +11°C° 0 mm 3 mps 752 mmHg 68%
    09:00 +13°C° 0 mm 2 mps 753 mmHg 66%
    10:00 +14°C° 0 mm 2 mps 753 mmHg 61%
    11:00 +15°C° 0 mm 2 mps 754 mmHg 56%
    12:00 +16°C° 0 mm 2 mps 754 mmHg 51%
    13:00 +17°C° 0 mm 2 mps 754 mmHg 51%
    14:00 +17°C° 0 mm 2 mps 754 mmHg 50%
    15:00 +17°C° 0 mm 2 mps 754 mmHg 50%
    16:00 +16°C° 0 mm 2 mps 755 mmHg 55%
    17:00 +15°C° 0 mm 2 mps 756 mmHg 59%
    18:00 +14°C° 0 mm 1 mps 756 mmHg 64%
    19:00 +14°C° 0 mm 2 mps 757 mmHg 64%
    20:00 +13°C° 0 mm 2 mps 757 mmHg 64%
    21:00 +13°C° 0 mm 2 mps 758 mmHg 65%
    22:00 +13°C° 0 mm 2 mps 758 mmHg 66%
    23:00 +12°C° 0 mm 2 mps 758 mmHg 67%

    25 November, Monday

    Time Temperature Precipitation Wind Pressure Humidity
    00:00 +11°C° 0 mm 3 mps 758 mmHg 69%
    01:00 +11°C° 0 mm 3 mps 758 mmHg 69%
    02:00 +11°C° 0 mm 3 mps 758 mmHg 69%
    03:00 +10°C° 0 mm 3 mps 758 mmHg 69%
    04:00 +10°C° 0 mm 3 mps 758 mmHg 69%
    05:00 +10°C° 0 mm 3 mps 758 mmHg 69%
    06:00 +10°C° 0 mm 3 mps 759 mmHg 69%
    07:00 +11°C° 0 mm 3 mps 759 mmHg 66%
    08:00 +12°C° 0 mm 2 mps 759 mmHg 64%
    09:00 +13°C° 0 mm 2 mps 760 mmHg 61%
    10:00 +14°C° 0 mm 2 mps 760 mmHg 56%
    11:00 +15°C° 0 mm 2 mps 759 mmHg 52%
    12:00 +17°C° 0 mm 2 mps 759 mmHg 47%
    13:00 +17°C° 0 mm 2 mps 759 mmHg 48%
    14:00 +17°C° 0 mm 2 mps 759 mmHg 49%
    15:00 +17°C° 0 mm 3 mps 759 mmHg 50%
    16:00 +16°C° 0 mm 3 mps 759 mmHg 54%
    17:00 +14°C° 0 mm 3 mps 759 mmHg 57%
    18:00 +13°C° 0 mm 3 mps 760 mmHg 61%
    19:00 +13°C° 0 mm 3 mps 760 mmHg 61%
    20:00 +13°C° 0 mm 2 mps 760 mmHg 62%
    21:00 +13°C° 0 mm 2 mps 760 mmHg 62%
    22:00 +13°C° 0 mm 2 mps 760 mmHg 63%
    23:00 +12°C° 0 mm 2 mps 760 mmHg 63%
    Show more